Weather History for Rogers, AR

Change the Weather History Date:

Thursday, September 6, 2012

  Actual Average Record
Temperature  
Mean Temperature 84 °F -  
Max Temperature 96 °F 82 °F 96 °F (1998)
Min Temperature 73 °F 61 °F 46 °F (2011)
Cooling Degree Days 20    
Growing Degree Days 34 (Base 50)    
Moisture  
Dew Point 67 °F    
Average Humidity 64    
Maximum Humidity 87    
Minimum Humidity 32    
Precipitation  
Precipitation 0.06 in - - ()
Sea Level Pressure  
Sea Level Pressure 29.89 in    
Wind  
Wind Speed 5 mph (ESE)    
Max Wind Speed 15 mph    
Max Gust Speed 26 mph    
Visibility 10 miles    
Events Rain , Thunderstorm    
Averages and records for this station are not official NWS values.
T = Trace of Precipitation, MM = Missing Value Source: NWS Daily Summary

Daily Weather History Graph

Daily Weather History Graph

Search for Another Location

Airport:

Trip Planner

Search our weather history database for the weather conditions in past years. The results will help you decide how hot, cold, wet, or windy it might be!

Date:

Astronomy

Sep. 06, 2012 Rise Set
Actual Time 6:52 AM CDT 7:36 PM CDT
Civil Twilight 6:26 AM CDT 8:02 PM CDT
Nautical Twilight 5:55 AM CDT 8:33 PM CDT
Astronomical Twilight 5:23 AM CDT 9:04 PM CDT
Moon 10:59 PM CDT (9/6) 12:40 PM CDT (9/6)
Length of Visible Light 13h 36m
Length of Day
12h 44m
Waning Gibbous, 67% of the Moon is Illuminated
Sep 6
Waning Gibbous
Sep 8
Last Quarter
Sep 15
New
Sep 22
First Quarter
Sep 29
Full

Hourly Weather History & Observations

Time (CDT) Temp. Heat Index Dew Point Humidity Pressure Visibility Wind Dir Wind Speed Gust Speed Precip Events Conditions
12:57 AM 75.0 °F - 64.9 °F 71% 29.88 in 10.0 mi Calm Calm - N/A   Clear
1:57 AM 75.0 °F - 68.0 °F 79% 29.87 in 10.0 mi Calm Calm - N/A   Clear
2:57 AM 75.0 °F - 69.1 °F 82% 29.88 in 10.0 mi SE 6.9 mph - 0.00 in   Clear
3:57 AM 75.0 °F - 66.9 °F 76% 29.88 in 10.0 mi Calm Calm - N/A   Clear
4:57 AM 73.0 °F - 69.1 °F 87% 29.88 in 10.0 mi ESE 4.6 mph - N/A   Clear
5:57 AM 73.0 °F - 68.0 °F 84% 29.89 in 10.0 mi East 4.6 mph - N/A   Clear
6:57 AM 73.0 °F - 69.1 °F 87% 29.90 in 10.0 mi East 5.8 mph - N/A   Clear
7:57 AM 75.0 °F - 70.0 °F 84% 29.91 in 10.0 mi East 4.6 mph - N/A   Clear
8:57 AM 79.0 °F - 70.0 °F 74% 29.91 in 10.0 mi SE 4.6 mph - N/A   Clear
9:57 AM 82.9 °F 87.0 °F 70.0 °F 65% 29.93 in 10.0 mi SSE 3.5 mph - N/A   Clear
11:57 AM 87.1 °F 91.3 °F 69.1 °F 55% 29.93 in 10.0 mi East 4.6 mph - N/A   Clear
12:57 PM 90.0 °F 92.8 °F 66.9 °F 46% 29.91 in 10.0 mi East 5.8 mph - N/A   Clear
1:57 PM 93.0 °F 97.4 °F 68.0 °F 44% 29.89 in 10.0 mi South 4.6 mph - N/A   Clear
2:57 PM 96.1 °F 99.9 °F 66.9 °F 38% 29.87 in 10.0 mi Variable 4.6 mph - N/A   Clear
3:57 PM 93.0 °F 92.3 °F 59.0 °F 32% 29.85 in 10.0 mi SE 12.7 mph 26.5 mph N/A   Clear
4:57 PM 91.4 °F 93.2 °F 64.4 °F 41% 29.89 in 10.0 mi SSE 9.2 mph - N/A Thunderstorm Clear
4:59 PM 90.0 °F 91.7 °F 64.9 °F 43% 29.84 in 10.0 mi SSE 8.1 mph - N/A Thunderstorm Partly Cloudy
5:18 PM 89.6 °F 92.2 °F 66.2 °F 46% 29.90 in 10.0 mi WSW 13.8 mph - N/A   Mostly Cloudy
5:26 PM 84.2 °F 87.3 °F 68.0 °F 58% 29.90 in 8.0 mi Variable 4.6 mph 20.7 mph 0.05 in Rain , Thunderstorm Heavy Thunderstorms and Rain
5:57 PM 81.0 °F 82.7 °F 64.9 °F 58% 29.86 in 10.0 mi NE 11.5 mph - 0.06 in Thunderstorm Partly Cloudy
6:09 PM 78.8 °F - 64.4 °F 61% 29.90 in 10.0 mi NE 9.2 mph - N/A   Clear
6:57 PM 79.0 °F - 66.9 °F 66% 29.87 in 10.0 mi NW 8.1 mph - N/A   Mostly Cloudy
7:57 PM 82.0 °F 83.1 °F 63.0 °F 52% 29.88 in 10.0 mi SSE 15.0 mph 21.9 mph N/A   Partly Cloudy
8:57 PM 77.0 °F - 66.0 °F 69% 29.89 in 10.0 mi SE 11.5 mph - N/A   Clear
9:57 PM 75.0 °F - 66.9 °F 76% 29.89 in 10.0 mi ESE 9.2 mph - N/A   Clear
11:57 PM 73.0 °F - 66.9 °F 81% 29.90 in 10.0 mi ESE 13.8 mph - N/A   Clear